Theta_e
338 339 339 337 336 335 335 335 336 336 334 332 331 329 328 330 332 333 331 330 330 328 328 329 330 330 331 331 331 331 332 332 332 332 332 332 333 335 334 333 334 335 334 334 335 336 335 334 334 333 333 333 332 331 331 329 329 329 330 329 329 328 327 327 327 327 327 327 328 327 327 327 327 327 327 327 327 326 327 327 327 327 327 327 327
337 338 338 336 334 333 334 334 334 334 332 331 329 329 327 328 330 332 331 330 329 330 329 329 330 332 332 332 332 332 332 333 333 332 332 332 333 336 335 335 336 337 338 335 337 337 337 336 334 334 333 333 332 331 331 331 331 331 330 329 328 328 328 328 328 328 328 327 327 327 326 326 326 326 327 327 327 327 327 327 327 327 327 327 326
336 337 337 336 333 332 332 332 331 331 331 331 329 329 326 328 329 331 331 330 329 331 329 329 331 332 333 332 332 332 333 333 334 333 332 332 333 333 334 334 335 337 340 339 337 338 338 338 337 334 333 333 333 332 332 332 331 330 330 330 329 328 328 329 328 327 327 328 327 327 327 327 327 327 326 326 326 327 327 327 326 326 325 325 326
335 336 335 334 332 332 331 330 331 329 330 330 329 328 326 327 328 330 332 330 330 329 329 330 330 331 332 331 332 332 333 333 333 333 333 333 332 333 335 336 335 339 340 340 339 338 338 338 338 338 335 333 333 333 333 332 332 332 331 330 330 329 329 328 328 327 326 327 327 326 327 327 327 326 326 326 326 326 326 326 325 325 325 326 326
334 335 335 333 332 331 330 331 331 331 330 330 330 327 328 328 329 332 331 330 329 328 329 328 329 329 331 331 332 332 333 333 332 333 333 332 332 332 333 335 336 339 339 339 339 338 338 337 336 336 337 337 335 335 334 333 333 332 332 332 331 330 330 329 330 329 328 327 327 327 326 327 327 326 326 326 325 325 325 325 325 325 325 326 326
333 333 333 332 331 330 330 330 330 330 330 329 329 328 328 328 329 330 332 329 327 327 327 327 327 329 330 331 332 333 333 332 332 332 332 331 331 331 331 331 332 335 337 338 338 338 337 337 336 336 336 336 335 336 335 335 334 334 334 333 332 332 331 331 329 329 328 328 327 326 326 327 326 326 326 326 325 325 324 324 324 325 325 325 326
334 333 332 332 331 330 329 330 331 331 330 330 329 329 329 329 330 329 328 327 327 328 327 326 327 328 329 330 331 332 333 332 332 332 331 330 331 331 331 331 332 332 333 333 336 337 336 336 336 337 336 335 335 333 336 336 335 335 334 334 332 332 332 331 330 329 329 328 328 328 328 327 327 327 327 326 326 325 325 325 324 324 324 325 325
334 334 332 331 331 330 329 331 333 332 331 331 331 329 329 329 330 329 327 326 327 325 326 326 327 328 329 330 331 332 332 331 331 331 330 330 330 330 330 331 332 335 335 331 332 335 335 336 336 336 337 336 335 335 335 336 335 336 334 334 334 333 332 331 330 330 330 330 330 330 329 328 328 327 327 327 326 326 325 325 324 324 324 325 325
334 334 331 330 331 330 331 332 334 331 330 331 331 330 330 329 327 329 329 326 326 324 325 326 327 328 329 329 330 331 331 331 330 330 330 330 329 329 330 330 335 335 330 331 331 330 332 335 335 336 337 338 337 336 336 335 335 335 335 334 335 334 332 332 331 331 330 331 331 330 330 329 328 328 328 328 327 327 326 326 325 324 324 324 325
334 332 330 331 331 331 331 332 331 330 330 330 330 331 330 329 326 327 327 327 325 324 324 326 327 328 328 329 329 330 330 329 329 330 329 328 329 329 330 332 331 330 330 331 330 328 327 330 332 333 336 337 337 336 336 336 336 335 335 334 334 334 333 332 333 332 331 331 331 331 331 330 330 329 329 329 328 328 327 326 326 325 324 324 325
335 332 331 332 331 331 330 331 330 329 330 329 329 329 329 328 327 326 327 326 325 325 326 327 327 328 328 328 329 328 327 329 329 329 329 328 329 330 330 331 331 330 331 331 328 326 328 328 328 329 332 336 338 336 336 335 336 336 335 334 334 333 334 334 334 332 332 331 331 331 330 330 330 330 330 329 329 329 328 327 326 325 324 325 326
333 332 332 331 330 330 330 330 329 329 328 328 328 328 327 326 326 326 325 325 326 326 328 328 328 327 327 327 328 327 327 328 328 328 328 329 330 330 330 330 330 330 330 329 327 328 328 328 329 328 329 331 335 337 337 336 335 336 335 336 334 334 334 333 333 333 332 332 332 331 330 330 330 330 330 330 330 330 329 329 328 326 326 326 329
333 332 330 332 330 329 329 329 329 329 328 328 328 328 328 327 326 326 324 322 324 327 328 329 326 323 324 324 324 326 328 327 327 327 328 329 330 330 330 328 328 329 328 328 328 328 328 328 328 329 329 330 331 332 336 335 336 335 336 336 335 335 334 334 333 333 332 331 331 331 331 331 331 331 329 330 330 330 330 329 329 328 329 328 328
332 332 331 330 328 328 328 327 329 328 328 329 328 329 328 327 326 325 327 325 322 326 327 327 323 321 320 319 322 323 325 325 326 327 329 329 328 327 325 328 329 328 329 328 329 329 328 328 328 328 328 329 331 332 333 334 335 337 335 335 335 334 332 334 333 332 332 332 331 332 332 332 331 331 331 331 331 330 330 329 329 329 328 327 327
331 331 330 330 329 328 327 328 327 328 328 328 328 328 327 327 326 325 324 326 325 328 327 326 322 324 323 320 317 317 320 321 324 325 326 326 328 327 328 330 329 329 328 328 328 329 329 328 327 327 327 328 329 330 333 335 337 337 337 335 335 334 333 333 332 333 332 332 331 332 331 330 330 330 330 331 331 331 330 329 329 327 326 325 325
329 330 330 330 329 328 328 328 328 329 327 327 327 327 327 327 326 326 325 322 323 324 328 324 326 322 317 317 317 318 314 317 320 323 325 324 325 326 328 328 328 328 329 327 328 328 327 327 326 325 325 326 326 328 331 333 335 336 336 335 335 335 335 333 334 332 333 333 332 331 329 328 328 328 328 330 330 330 330 329 328 326 325 325 324
330 329 330 328 329 328 328 328 329 329 329 327 327 327 327 327 327 326 325 324 322 324 326 325 325 327 321 317 315 314 315 318 320 320 324 324 325 325 326 326 327 327 327 328 328 328 327 326 325 324 324 325 325 326 328 329 331 334 334 334 334 334 333 333 334 333 335 332 330 330 328 327 327 328 329 330 330 330 330 328 326 325 325 325 324
331 331 330 330 329 328 328 328 328 329 328 328 327 327 327 326 326 327 325 326 325 324 323 326 326 326 323 322 320 316 316 319 318 312 322 323 325 325 325 326 326 326 327 325 327 327 327 325 323 323 323 323 324 325 326 328 330 330 333 334 332 333 330 333 333 333 332 331 330 329 328 327 327 328 329 330 330 329 328 327 325 324 324 323 323
330 330 330 330 329 328 328 329 329 328 328 327 326 327 327 328 328 326 326 325 326 323 323 323 325 325 324 324 323 320 324 320 316 317 314 319 322 322 323 326 326 326 325 325 326 327 326 325 322 322 321 321 321 322 323 325 328 330 329 327 327 327 326 327 331 332 332 331 330 329 328 327 326 326 328 328 328 327 326 324 323 322 322 321 321
329 330 330 331 330 328 329 329 328 328 328 327 327 328 328 329 328 327 326 326 326 325 324 324 322 323 324 322 323 320 324 321 322 319 317 314 315 319 322 323 324 325 324 325 326 327 325 322 321 320 320 319 319 319 320 320 321 325 327 324 325 325 325 325 324 328 329 329 329 329 329 327 327 325 325 325 325 324 323 322 322 321 320 320 319
329 329 331 331 331 329 328 328 328 328 329 328 328 328 327 327 327 326 325 325 326 326 325 324 324 323 320 320 319 319 320 318 321 319 317 315 314 317 315 318 320 321 322 325 326 327 325 322 322 320 320 318 317 317 318 319 321 323 325 322 322 322 321 320 316 315 319 328 328 328 328 327 326 325 324 323 323 322 322 321 320 319 319 318 317
328 330 330 331 331 330 329 328 328 328 330 328 327 327 327 327 328 328 326 325 326 326 325 326 326 324 324 321 318 317 318 318 318 317 317 317 316 316 316 316 316 316 321 323 324 325 323 322 322 319 317 316 316 316 316 317 319 321 321 319 320 320 319 318 315 314 317 322 325 325 325 325 325 324 322 322 322 321 319 319 319 319 318 318 317
329 329 329 331 331 331 330 329 328 329 329 327 327 327 326 327 328 328 327 326 325 325 325 325 326 324 322 322 321 320 319 317 317 318 318 314 316 315 315 318 317 316 319 322 323 322 321 320 319 317 316 315 314 315 315 317 321 321 321 320 320 320 318 315 314 314 319 321 323 323 323 322 323 322 321 321 320 320 320 320 320 319 318 317 317
329 328 328 329 330 331 331 330 328 329 328 327 327 327 326 327 328 328 327 326 325 325 324 324 324 324 323 322 322 322 321 321 320 320 319 318 318 316 315 314 315 313 317 320 320 320 320 319 318 317 315 314 314 314 317 318 321 322 322 320 319 319 318 316 312 312 312 314 317 320 323 323 323 322 321 321 322 321 321 320 319 318 318 318 317
328 328 328 328 329 329 330 329 329 329 329 327 326 326 326 326 326 327 328 327 326 325 324 324 325 324 323 323 322 321 322 322 321 321 319 319 318 315 312 316 312 312 316 319 317 314 318 319 317 316 314 314 314 315 315 317 321 321 320 319 317 317 317 319 318 312 310 310 314 319 324 322 322 323 322 322 322 322 321 321 321 316 318 320 317
328 328 329 329 329 330 331 330 330 329 329 329 327 326 326 325 325 326 327 328 328 326 325 325 325 325 325 323 321 321 322 321 321 320 317 317 316 315 313 311 314 312 310 317 313 318 316 314 315 315 314 313 314 314 315 315 318 320 318 319 318 315 315 317 320 317 314 314 316 318 322 324 325 324 323 323 324 323 322 316 313 311 309 309 312
329 330 330 329 329 328 329 329 329 328 328 328 327 326 326 326 325 324 325 326 327 326 326 324 323 323 324 324 322 321 321 321 321 320 319 319 318 316 315 311 309 312 313 310 313 317 317 309 312 314 314 314 313 313 314 314 315 318 317 319 319 314 314 314 317 319 316 315 314 314 316 318 320 321 322 321 319 315 314 314 313 310 310 310 313
330 329 328 329 328 327 327 327 327 327 327 327 327 326 326 325 325 324 324 326 326 326 326 325 324 324 324 323 322 322 321 321 321 321 318 319 319 318 318 316 312 308 308 313 313 315 312 314 309 312 313 313 312 313 313 314 315 317 316 317 318 317 313 312 316 319 317 314 311 309 309 310 311 312 312 313 314 314 315 315 313 311 309 311 314
328 327 326 327 327 327 327 327 326 325 325 326 326 326 326 326 326 325 325 325 326 325 325 324 325 324 323 322 323 322 321 322 322 321 318 318 318 318 319 317 317 312 308 311 312 314 314 312 312 312 312 312 312 312 314 313 314 316 314 315 316 316 313 312 311 313 312 311 312 310 308 308 309 309 312 314 315 316 316 313 311 309 309 311 314
328 327 326 325 325 329 326 325 325 325 325 326 326 326 326 326 326 327 327 326 325 325 324 324 324 323 323 322 322 322 322 322 322 321 317 317 317 317 318 319 318 314 312 311 311 313 314 309 312 313 309 311 311 311 312 312 313 314 311 312 314 315 311 310 310 308 307 309 309 306 306 307 308 310 312 312 313 312 310 310 308 307 309 311 314
326 326 325 324 324 324 325 325 325 325 325 325 326 326 327 326 326 326 327 325 324 323 323 324 324 324 323 323 322 322 321 321 321 321 318 316 316 316 317 316 316 317 314 313 310 311 314 312 309 309 310 309 310 311 311 311 313 314 311 311 311 311 312 312 309 308 308 307 306 305 307 307 306 307 309 310 312 311 310 311 309 308 310 312 310
324 324 324 324 323 323 324 324 324 324 323 324 325 326 326 326 325 326 326 326 324 323 323 323 324 324 323 323 321 322 321 321 321 321 319 317 316 315 315 315 314 313 313 311 310 310 309 314 313 307 309 309 309 309 310 309 310 313 310 310 310 310 313 314 309 307 308 306 306 306 310 310 306 307 308 309 310 311 310 311 309 309 310 307 307
323 323 323 324 324 324 324 323 323 323 323 323 324 325 325 325 325 326 326 326 325 324 324 322 324 323 323 323 322 321 321 322 321 321 320 318 315 315 314 313 312 311 311 310 308 305 305 307 310 306 306 309 307 309 309 309 310 312 309 308 309 310 311 312 312 308 306 305 305 305 304 304 305 308 307 306 308 308 309 307 306 306 304 305 305
323 323 324 324 324 324 324 323 323 323 323 324 324 325 324 324 324 326 325 326 325 324 324 323 323 324 323 323 322 321 321 322 321 321 320 318 317 314 313 312 311 310 312 309 307 306 305 305 306 304 305 308 308 308 309 308 309 310 309 307 306 307 309 310 310 311 305 306 304 303 304 303 302 303 303 302 302 303 304 304 304 304 304 303 301
321 323 323 323 324 324 324 323 323 323 324 324 323 324 324 324 323 324 325 325 325 323 322 323 324 324 323 322 322 320 320 321 321 322 321 320 318 315 313 312 311 309 309 310 308 306 304 304 305 304 305 306 309 307 308 308 309 309 308 308 306 306 307 308 308 308 304 303 303 302 302 302 302 302 301 301 301 301 302 302 303 303 302 302 300
321 320 322 323 323 323 323 322 323 323 323 323 322 323 323 323 324 324 325 325 325 324 323 323 324 324 323 323 322 320 320 320 320 321 321 321 320 317 315 313 312 309 309 309 311 308 305 304 303 304 304 306 305 304 307 307 307 308 309 308 306 305 306 306 306 307 305 303 302 302 303 302 302 302 301 301 301 301 301 301 301 302 302 301 301
320 319 319 321 322 323 323 322 322 322 323 322 321 321 322 323 324 325 324 324 324 323 323 324 325 324 324 324 323 321 320 320 319 320 321 321 321 320 317 315 312 311 309 308 308 307 305 305 305 304 305 304 304 303 306 305 304 306 307 307 306 305 305 305 305 305 305 303 302 302 301 301 302 302 301 301 301 301 301 301 301 301 301 302 301
318 318 318 319 322 322 323 322 322 322 321 321 321 321 321 321 323 324 324 324 323 323 323 323 324 324 325 324 323 322 321 321 320 320 321 322 321 320 320 317 314 313 310 308 307 307 307 306 306 304 304 304 303 304 304 306 304 303 304 305 306 306 305 305 305 304 305 304 305 304 303 302 302 301 302 302 301 301 301 301 301 301 301 301 301
318 317 318 319 320 322 322 322 321 321 321 321 321 320 320 320 321 321 322 322 322 321 321 322 322 323 324 324 324 322 322 322 321 320 320 321 321 321 320 320 318 315 312 309 306 305 306 305 305 306 305 304 305 304 302 304 303 304 304 304 304 304 306 306 306 305 306 306 304 301 302 303 303 304 302 301 301 301 301 301 301 301 300 300 299
318 318 318 318 319 320 320 320 320 319 319 319 318 319 320 320 320 320 321 321 321 321 320 320 321 322 322 323 323 322 323 323 322 321 321 321 321 321 320 320 318 316 314 312 307 305 305 305 305 304 304 304 304 303 300 301 301 301 301 303 303 303 304 306 307 307 308 307 307 306 303 302 302 303 301 302 302 302 302 302 302 302 301 300 299
318 318 318 318 317 316 314 314 313 314 316 317 317 318 319 319 319 319 319 320 320 320 320 320 319 320 321 321 321 322 323 321 315 315 316 317 320 320 319 318 317 316 315 312 310 306 306 305 304 304 304 303 304 302 300 301 301 303 304 303 303 304 304 304 305 306 306 307 308 307 306 308 306 308 306 306 306 305 304 303 304 303 302 300 300
316 316 315 315 316 314 312 309 308 308 309 308 309 308 311 319 319 320 319 319 320 320 319 318 318 319 319 319 321 319 316 313 308 304 305 307 311 317 319 316 314 311 311 311 308 307 306 304 304 304 303 303 303 303 302 303 305 306 303 302 302 303 304 303 305 306 307 307 307 307 308 309 309 308 308 307 309 309 309 309 308 306 303 300 300
314 314 314 313 313 312 311 309 307 305 303 302 298 296 298 303 317 319 319 318 319 318 318 318 317 316 313 313 316 317 314 309 304 297 296 298 301 302 307 310 314 314 311 309 309 307 306 305 304 303 304 303 304 305 304 304 305 305 304 302 303 303 303 302 303 307 309 308 307 306 307 311 309 307 308 308 309 310 309 309 303 302 301 300 300
312 311 311 311 309 308 308 307 306 303 300 297 292 294 295 296 302 317 318 318 317 317 317 317 315 314 311 310 310 311 310 308 306 303 300 295 294 294 295 296 297 300 304 310 310 306 306 305 303 303 304 303 303 304 304 305 305 304 304 303 303 303 302 302 302 303 310 306 308 306 307 309 308 309 309 308 309 310 309 305 302 300 300 300 300
309 308 305 305 303 303 304 303 301 300 299 295 292 293 295 296 296 306 315 316 316 316 315 313 312 311 309 309 309 310 309 312 309 304 303 300 297 295 296 296 295 293 291 293 298 309 308 307 305 304 304 304 304 305 305 307 306 306 304 303 303 303 303 304 304 303 308 307 308 306 306 309 306 308 307 310 310 310 309 303 301 300 300 300 299
304 302 300 299 300 300 300 299 298 297 297 295 293 297 298 296 297 304 312 313 312 312 311 310 309 308 308 308 307 307 309 309 308 307 306 305 304 302 300 299 299 298 296 295 294 296 303 308 308 308 307 307 310 309 308 308 309 309 307 306 305 305 303 305 307 306 308 306 311 308 306 311 308 306 307 311 311 311 311 305 300 300 300 299 299
299 298 297 297 297 298 298 298 298 297 298 293 294 294 295 297 299 302 308 306 304 303 302 303 303 304 306 307 307 307 307 309 310 308 305 302 300 299 298 298 298 298 297 297 299 301 302 303 304 303 303 303 304 303 304 306 309 309 310 311 309 311 309 308 308 307 310 308 308 308 308 310 305 308 310 311 311 311 312 306 303 302 301 300 299
297 297 296 296 295 295 296 297 298 297 297 293 294 295 296 296 298 304 303 302 300 299 298 298 298 299 300 303 305 306 307 308 303 299 300 301 300 299 298 298 298 299 298 297 294 295 298 300 300 300 299 299 297 300 301 303 305 306 307 308 309 307 308 307 307 304 307 307 307 308 305 307 309 307 310 312 312 312 314 314 306 303 301 300 299
296 296 296 296 296 296 296 296 296 296 296 293 292 293 294 296 299 302 300 299 298 298 297 298 298 298 298 298 300 302 303 304 298 296 296 298 300 299 298 298 298 297 297 299 296 294 293 293 293 293 293 294 294 294 294 295 300 304 306 307 305 304 306 306 304 304 307 305 307 307 307 305 309 308 308 311 310 309 312 313 314 304 300 299 299
295 296 297 297 297 297 297 296 296 295 295 294 292 293 294 295 298 301 300 298 297 296 296 297 298 299 301 300 299 298 298 297 293 293 293 298 299 299 298 298 298 297 297 298 299 298 295 295 294 294 294 294 295 295 295 295 296 300 305 302 303 302 302 301 302 301 303 303 305 306 303 304 307 307 306 308 309 307 308 311 309 309 303 303 301
297 297 297 296 296 297 297 297 298 295 295 295 293 293 294 295 298 300 299 297 296 295 295 295 295 295 295 296 297 297 297 294 291 292 293 297 299 299 300 299 297 296 296 297 299 299 299 299 299 299 298 298 300 299 299 295 296 299 302 302 302 302 300 299 299 299 300 302 303 304 301 302 303 305 305 303 302 305 308 306 308 310 310 308 307
Wind_Speed
6 6 5 5 4 4 4 4 4 4 4 4 4 4 4 4 5 5 5 5 5 6 6 6 6 5 6 5 5 5 5 4 4 4 3 3 3 6 9 8 8 7 9 9 8 9 8 8 8 8 8 8 8 8 8 8 9 10 10 11 11 11 11 10 10 10 11 11 11 12 11 11 12 13 13 14 14 15 14 14 15 15 15 16 16
5 4 6 4 4 4 4 4 4 3 4 4 3 4 4 4 5 5 5 5 5 5 6 6 5 5 5 5 5 5 4 5 4 4 3 3 3 4 9 8 5 2 6 7 8 8 8 8 8 8 7 8 8 8 8 8 8 9 10 10 10 10 11 10 10 10 10 10 11 10 11 11 11 12 12 13 14 14 14 14 14 15 15 15 16
4 5 4 4 4 4 4 4 4 3 3 3 3 4 4 4 5 5 5 5 5 5 5 6 5 5 4 5 5 5 4 4 4 3 3 3 2 2 4 4 3 5 7 5 8 8 8 8 8 8 8 8 8 8 7 7 8 8 9 9 9 10 10 11 11 10 10 10 10 10 10 11 11 12 12 13 14 14 14 14 14 15 15 15 15
5 5 5 5 5 5 4 4 4 3 4 3 4 4 5 4 4 4 5 5 5 4 4 5 5 5 5 6 5 5 5 4 4 3 3 3 2 3 3 2 3 8 8 9 7 7 6 5 5 7 8 8 8 8 7 8 8 9 8 8 8 8 9 10 10 9 9 9 9 10 10 11 11 11 12 12 12 13 13 13 14 14 15 15 15
5 6 6 5 5 5 4 4 4 4 4 4 4 5 5 4 4 4 5 5 5 5 5 5 5 5 5 6 5 6 5 4 4 4 3 3 3 2 3 3 4 6 8 8 8 7 6 3 3 4 6 7 9 9 8 8 9 8 8 8 8 8 8 9 9 10 9 9 9 9 9 10 11 11 11 11 11 11 12 12 13 12 13 14 14
5 5 5 4 4 4 5 4 4 4 4 4 4 4 4 5 5 5 5 6 6 6 6 6 4 4 5 5 5 6 6 5 4 4 4 3 3 3 3 3 3 3 4 6 7 6 5 4 2 2 5 5 6 9 9 9 9 8 8 9 9 9 8 8 9 9 9 9 9 8 8 9 9 10 10 10 10 10 11 11 11 12 12 13 13
6 6 5 4 5 4 4 4 3 3 4 4 4 3 4 4 4 5 4 4 5 4 5 6 7 7 5 5 6 6 6 6 5 5 4 3 3 3 3 2 3 3 3 3 4 7 6 5 6 4 2 3 5 3 8 9 10 9 9 9 8 8 9 9 9 9 9 9 9 9 8 8 8 8 9 9 9 9 9 10 11 11 12 12 12
6 5 5 3 1 4 3 2 3 4 4 4 4 5 4 4 4 5 6 5 6 5 4 6 5 6 5 5 6 6 5 6 6 4 4 3 3 3 2 2 3 3 3 3 4 4 5 5 5 5 5 2 4 6 4 8 9 9 9 9 9 9 9 9 9 9 9 9 9 9 9 9 8 8 7 8 8 8 8 9 10 10 10 11 10
5 5 5 5 5 4 3 2 2 3 4 5 5 5 5 5 3 2 5 6 6 7 6 5 6 5 5 5 5 5 5 6 6 4 4 4 4 3 3 2 3 4 3 3 4 3 5 7 6 6 5 4 2 7 8 7 8 8 9 8 9 10 10 10 10 10 9 9 11 10 9 9 9 8 8 7 7 8 8 8 8 9 9 9 7
4 5 6 6 3 2 2 3 3 2 4 5 5 5 5 6 6 3 5 6 6 8 8 6 6 6 5 5 5 4 4 3 3 4 4 4 4 4 3 2 3 3 3 3 3 3 2 5 6 6 6 5 2 5 6 7 8 8 8 7 8 10 11 10 10 10 9 10 9 9 8 7 8 8 8 8 8 8 8 8 9 9 9 5 6
5 8 7 6 5 4 3 3 3 3 3 5 5 5 5 4 6 5 4 4 6 7 8 8 7 6 5 4 4 4 4 5 4 3 4 4 5 4 3 3 3 3 3 3 2 2 3 3 3 3 3 6 4 3 4 6 6 7 9 7 7 8 9 11 11 10 10 9 8 8 7 6 6 7 7 8 8 8 9 9 9 9 7 5 6
5 7 7 6 5 4 4 3 2 3 4 6 6 5 7 7 5 6 6 5 5 6 8 8 7 6 6 5 4 4 5 4 5 0 2 4 4 4 4 2 3 3 3 2 2 2 3 3 3 3 3 5 6 5 4 4 6 6 8 8 8 8 8 9 10 11 11 9 8 6 3 3 3 3 5 7 9 9 9 9 8 7 6 7 10
6 6 6 7 7 5 4 3 3 2 3 4 4 3 2 4 6 6 7 5 4 6 7 7 8 4 5 5 6 4 5 5 4 3 0 2 3 4 4 3 2 4 3 2 2 3 3 4 3 3 3 2 3 5 5 3 3 5 6 7 8 10 9 9 8 10 7 7 7 5 3 3 3 3 4 6 8 10 10 9 8 8 8 9 11
7 6 6 6 6 7 6 5 4 5 3 0 3 6 5 6 6 4 2 5 3 6 8 7 4 5 5 4 4 4 4 4 4 2 2 3 3 3 3 4 4 4 3 2 3 4 4 4 3 3 3 3 3 3 3 3 2 2 2 4 5 5 6 9 9 7 8 8 8 10 11 10 9 7 4 7 10 10 10 9 11 11 11 12 12
6 7 6 7 6 6 6 7 6 4 4 4 4 5 6 8 7 7 6 3 3 5 8 2 5 5 5 4 3 2 2 3 1 2 2 2 3 4 3 3 6 4 3 3 3 4 4 3 3 3 3 4 3 3 3 3 6 6 4 3 6 7 7 8 8 9 9 9 10 13 12 11 10 9 9 10 10 10 10 11 12 12 12 12 12
6 7 7 8 8 7 6 6 8 8 7 6 7 6 7 7 6 6 8 6 3 5 5 3 4 9 5 2 3 3 3 2 3 1 3 4 4 3 5 4 5 4 2 3 3 3 4 3 4 3 3 3 3 4 4 4 7 8 9 6 6 8 9 9 10 10 11 13 12 12 11 10 10 9 9 8 9 10 11 13 12 12 11 12 12
5 6 7 6 6 7 6 7 7 8 7 6 6 7 6 5 5 6 9 9 7 5 6 3 5 1 5 5 3 2 3 3 5 1 2 4 4 4 5 5 4 3 2 2 3 3 4 3 3 3 3 3 4 3 4 5 5 5 7 10 10 10 11 12 12 13 14 12 12 12 11 11 10 10 10 9 10 12 14 14 12 12 12 12 12
3 4 6 7 7 7 7 7 7 7 6 6 6 5 6 7 8 7 7 6 8 6 6 5 4 3 2 1 2 4 6 6 5 3 1 2 4 4 5 5 4 2 2 2 3 3 3 2 2 3 3 3 3 3 4 4 4 4 5 7 11 13 11 13 13 12 12 12 12 12 12 11 12 12 13 14 16 16 15 13 12 12 12 12 13
6 5 5 4 5 6 7 7 6 6 5 4 5 7 7 8 7 5 2 2 6 9 9 7 3 3 2 0 1 1 6 9 4 4 4 1 3 3 3 5 3 3 2 2 3 3 3 2 3 2 2 2 3 3 3 4 5 6 7 9 9 8 8 8 11 12 12 12 12 12 12 11 11 12 13 14 14 14 13 13 12 13 13 12 12
6 6 6 6 6 6 6 6 6 7 7 7 7 6 5 4 6 6 4 5 5 7 9 7 9 7 4 3 3 1 4 3 5 6 5 7 3 1 3 4 3 3 1 3 4 4 4 2 2 2 2 2 2 2 3 4 4 4 4 8 8 8 8 8 9 10 11 11 12 12 12 12 12 11 12 12 13 13 13 12 12 13 12 12 11
6 7 8 8 7 7 7 7 7 7 7 7 6 6 8 8 7 7 7 7 7 6 7 9 7 7 6 2 2 2 3 3 4 4 4 5 3 4 3 2 2 1 1 2 4 5 5 3 2 2 2 1 2 3 3 3 4 4 4 8 8 8 9 8 8 8 8 11 12 12 12 13 13 13 12 12 12 12 12 12 12 12 11 11 11
6 6 7 7 7 7 7 7 7 7 7 7 6 6 6 7 8 9 8 9 7 7 8 8 8 5 6 5 4 3 4 2 2 4 4 3 6 7 6 6 5 0 1 4 5 5 3 3 3 2 2 2 1 2 3 4 3 4 5 9 9 9 9 9 9 9 10 9 11 12 13 13 13 13 12 12 12 12 12 12 11 11 11 11 10
5 6 7 6 7 7 7 7 6 6 6 7 7 7 6 6 7 8 9 9 7 7 6 6 6 6 6 6 6 8 7 6 6 5 5 4 6 5 5 5 5 4 2 2 4 4 3 2 3 2 1 1 1 2 3 3 3 4 7 8 9 10 10 9 9 9 9 9 10 11 12 13 12 12 12 11 11 11 11 11 11 11 10 10 10
6 6 5 5 6 6 7 7 6 6 6 5 6 6 6 6 6 6 7 7 6 6 6 7 8 6 6 6 6 6 5 6 7 7 7 6 8 8 6 4 3 2 2 3 3 3 3 3 2 2 1 1 1 1 1 2 3 6 5 8 9 10 10 9 8 8 8 8 9 9 11 12 12 12 11 11 11 11 11 11 10 10 10 10 9
6 7 6 7 6 6 6 6 6 6 6 6 6 6 6 6 6 7 7 8 7 8 7 8 9 8 8 6 5 5 6 4 6 7 4 5 7 8 3 3 4 3 2 3 2 1 1 2 2 2 2 2 2 2 1 1 3 4 5 6 10 9 9 9 7 7 7 8 8 8 9 10 11 11 10 10 10 10 10 9 7 5 5 5 7
7 7 6 7 6 6 6 7 6 6 7 7 6 6 6 7 7 7 8 7 7 8 8 8 7 8 6 6 5 6 6 5 6 6 6 7 7 9 8 3 3 3 1 2 1 3 2 2 2 3 3 2 2 2 2 2 2 4 6 5 7 9 9 8 7 6 7 7 6 6 8 8 8 9 10 9 8 8 8 7 7 6 6 5 4
8 6 5 6 6 6 7 6 6 6 6 6 6 6 6 6 6 7 6 6 7 7 7 8 7 7 7 7 6 5 5 5 6 6 6 8 8 9 10 9 4 2 3 0 0 5 2 1 2 3 3 3 3 3 3 3 2 4 6 5 5 8 8 8 7 7 7 7 5 5 5 5 6 7 6 7 7 7 7 7 6 6 6 5 4
5 4 4 5 5 6 5 6 5 6 6 7 7 7 7 7 6 6 7 5 7 8 7 8 8 9 9 7 6 6 5 6 6 6 7 6 7 8 9 10 10 4 1 5 4 5 4 3 1 3 4 4 3 3 3 3 3 4 5 4 5 5 8 9 9 8 8 7 6 5 6 6 7 7 8 7 7 7 6 6 6 6 5 4 3
5 4 4 4 5 5 5 5 5 5 5 6 7 7 7 7 6 6 7 7 7 8 7 7 7 7 6 7 7 6 6 5 5 5 6 6 7 8 9 10 9 8 7 7 8 6 5 5 4 4 5 4 4 3 4 4 3 4 3 4 5 5 7 9 9 9 8 8 7 7 7 7 7 7 7 7 7 6 6 6 6 5 5 4 3
6 4 5 5 5 6 5 5 5 5 6 6 6 6 7 6 7 6 6 7 7 5 6 6 6 6 6 6 6 5 5 6 6 6 6 7 7 8 7 6 8 10 8 8 8 7 5 4 5 3 4 5 4 4 3 4 4 5 3 4 4 5 7 9 9 9 9 9 8 8 8 8 8 7 7 7 7 6 6 6 5 4 4 3 3
7 6 6 6 6 6 6 6 5 6 6 6 7 6 6 6 6 6 6 7 7 7 6 6 6 6 7 8 5 6 6 6 6 5 6 6 7 7 6 6 6 7 9 6 5 5 5 6 6 3 4 5 5 4 3 3 4 5 4 4 4 5 7 6 9 9 9 9 9 8 8 8 9 9 8 7 6 6 5 4 4 4 4 4 4
8 8 7 7 7 7 6 6 6 6 6 5 5 5 6 6 6 6 7 7 7 7 6 5 5 6 8 8 7 6 5 5 5 5 6 6 6 7 7 6 6 5 6 7 6 6 6 6 5 4 4 6 5 6 4 3 3 5 3 3 3 3 4 4 7 8 9 9 8 8 8 9 9 8 7 7 6 6 5 6 6 6 5 5 5
8 7 7 7 7 7 7 7 7 6 6 6 6 6 6 6 6 6 7 7 7 6 6 6 6 6 7 7 7 6 6 7 6 5 5 6 6 6 6 5 6 5 7 6 6 3 1 1 3 5 4 6 4 5 6 5 5 3 3 2 2 3 3 3 4 7 8 8 8 8 8 8 8 7 7 7 7 7 7 7 8 8 8 8 8
8 8 7 6 6 6 6 6 6 6 6 6 7 6 6 6 6 5 6 7 7 6 6 7 7 6 7 7 7 6 6 7 7 6 6 6 7 5 5 6 6 6 5 5 4 5 5 2 3 2 4 4 4 4 7 8 6 4 4 3 2 2 3 3 3 4 7 8 8 9 8 8 7 7 7 7 7 7 8 8 9 10 11 11 11
6 6 6 6 6 6 5 5 5 6 7 7 7 7 7 7 7 7 6 7 7 7 7 7 7 5 6 6 6 5 4 6 6 5 6 6 6 7 7 6 7 6 6 5 5 4 6 5 3 5 5 5 6 6 6 4 4 4 5 5 4 3 3 3 4 4 6 8 9 9 9 9 9 9 8 8 8 8 9 11 11 12 12 12 13
7 6 7 7 7 6 6 5 6 6 6 6 7 7 7 8 8 8 7 7 7 7 7 7 7 7 7 7 7 6 7 7 6 6 5 6 6 6 7 7 7 7 6 5 5 5 5 6 5 6 4 6 4 2 4 3 5 4 4 3 3 4 4 4 5 5 6 9 10 11 11 10 10 10 10 10 10 11 12 12 13 13 13 13 13
6 7 7 8 8 7 7 7 7 7 7 7 7 7 7 7 8 8 7 7 7 7 7 7 8 8 8 8 7 7 8 7 6 6 7 8 6 6 7 7 7 6 5 6 5 4 6 7 4 1 2 2 1 2 5 6 3 3 3 5 4 4 5 5 4 5 8 9 10 11 11 12 12 12 12 12 13 13 14 14 14 14 15 15 15
5 5 7 7 8 8 8 8 8 8 7 7 7 7 7 7 7 7 7 7 7 9 7 8 8 8 9 8 8 8 8 8 7 7 7 8 7 7 7 7 6 6 6 6 5 5 6 5 6 4 3 5 3 2 3 4 5 4 3 3 3 4 4 5 6 4 4 4 4 5 8 10 12 13 13 13 14 14 15 15 14 15 15 16 15
6 6 6 7 6 7 7 7 8 8 8 7 7 6 6 7 7 7 6 7 6 6 7 8 8 8 9 8 8 8 8 7 7 8 8 7 7 8 8 8 6 7 7 7 6 6 5 5 3 3 4 2 3 5 2 4 3 4 5 3 6 5 5 6 6 4 4 5 7 10 9 8 8 8 10 14 15 16 16 16 16 17 17 16 15
6 6 6 7 6 6 6 6 6 6 7 6 6 5 6 6 6 6 6 7 7 6 7 6 6 7 7 7 7 7 7 6 7 7 7 7 6 8 7 6 7 7 7 6 6 6 5 5 5 5 3 4 2 2 3 5 4 2 5 7 9 7 8 5 6 5 3 4 5 5 6 7 9 10 12 13 15 16 16 16 18 18 19 18 17
4 2 2 5 6 5 4 5 5 4 6 6 6 6 6 6 6 6 6 6 6 6 6 6 5 5 5 5 6 6 6 5 5 6 7 7 8 8 6 6 7 7 7 6 6 6 5 5 5 3 5 5 6 6 6 6 9 10 7 8 8 4 1 4 4 4 5 5 4 4 6 6 6 7 6 7 10 13 14 18 15 18 18 17 17
2 2 3 4 6 6 6 5 4 3 3 3 4 7 7 6 6 6 5 6 6 6 5 5 4 4 4 4 4 6 7 8 7 6 3 3 3 3 3 7 7 4 5 7 6 6 6 7 7 7 7 7 8 9 9 8 3 3 4 6 8 3 1 4 5 4 4 6 5 6 8 4 6 7 6 7 8 7 6 6 8 10 12 15 16
2 2 3 5 5 6 6 6 5 4 3 2 2 2 6 7 6 6 7 6 6 6 6 6 6 5 4 4 5 7 7 7 7 8 7 6 3 3 8 11 11 12 10 8 7 8 8 8 6 6 8 8 9 8 7 5 4 5 4 5 4 3 4 3 6 3 2 5 4 3 7 2 5 7 6 6 7 6 5 7 11 12 15 15 15
2 2 2 2 4 5 5 5 4 3 3 4 4 3 3 6 6 6 6 6 6 6 6 6 6 6 5 5 4 3 5 7 7 7 8 9 9 9 8 6 2 2 1 7 9 7 7 7 7 9 8 8 6 6 5 5 5 4 4 5 5 5 5 5 4 4 0 2 4 2 7 1 4 4 6 6 4 4 6 8 11 12 13 14 14
4 4 3 3 3 4 5 6 4 3 3 5 5 3 2 4 7 5 4 5 7 7 6 6 6 6 6 5 4 3 3 9 7 7 8 9 12 14 13 13 12 9 7 4 1 6 7 8 7 6 5 4 5 4 5 4 4 5 4 4 4 4 5 5 5 3 1 3 2 2 5 2 2 2 5 6 4 3 6 7 10 10 11 11 12
5 6 6 6 4 4 5 6 5 4 3 6 4 1 2 6 9 7 5 7 6 6 6 6 6 6 6 6 6 4 4 5 6 8 8 8 8 8 9 8 8 10 12 12 10 9 5 5 7 6 1 2 5 4 3 5 6 6 6 6 4 5 5 6 3 2 1 0 1 0 3 5 1 1 4 5 3 4 4 7 10 11 10 11 10
5 6 6 6 5 4 5 5 6 6 5 7 6 7 6 8 12 9 7 7 7 7 6 5 5 5 5 5 6 7 5 5 5 8 9 9 9 8 9 9 8 8 9 10 9 6 7 7 8 8 5 5 5 5 3 2 2 3 4 5 6 4 3 1 2 1 2 2 0 2 4 3 1 3 4 5 5 5 5 8 11 13 13 12 12
6 5 6 7 6 6 6 5 6 7 7 10 9 10 10 10 11 8 8 8 8 7 6 5 5 5 4 6 7 6 6 7 8 11 12 10 12 13 13 10 8 7 9 9 11 12 10 8 7 7 6 7 8 7 5 3 3 3 4 4 4 3 2 3 3 4 3 2 3 3 1 3 4 3 5 5 5 6 7 6 11 9 7 7 7
8 8 6 7 6 6 7 6 7 6 6 10 9 9 9 9 8 8 7 7 6 8 6 6 5 5 4 5 6 6 7 7 9 13 11 11 9 10 10 10 9 9 8 7 13 16 17 17 16 15 15 15 16 16 16 14 8 4 4 8 7 4 5 1 1 2 1 3 5 5 1 4 2 3 5 4 5 7 6 6 4 3 6 6 6
9 8 7 6 8 8 9 9 7 6 7 9 10 10 11 11 7 7 6 7 7 6 6 6 5 5 6 9 6 6 7 6 9 11 10 11 10 9 10 10 9 9 6 4 6 9 16 16 16 16 16 16 17 18 18 18 16 10 6 6 1 2 4 3 1 1 3 2 3 4 2 3 3 3 4 4 5 4 5 2 3 4 7 9 11
9 8 8 6 6 9 9 10 13 10 7 8 12 12 12 10 8 6 6 6 8 6 5 6 5 5 6 8 9 6 6 7 10 10 8 9 10 9 9 10 9 8 4 4 8 9 8 10 10 11 12 12 12 11 11 16 15 11 8 5 3 5 5 3 1 1 2 0 1 4 3 3 4 2 3 6 2 3 1 1 4 6 5 5 6
Wind_Direction
166 165 158 167 151 155 156 156 152 150 140 132 128 115 99 114 128 124 113 113 121 127 128 128 131 136 136 135 130 124 126 118 114 113 107 104 129 143 136 142 150 150 131 131 127 127 140 144 143 143 138 129 129 123 116 113 113 112 110 109 107 103 100 101 97 92 88 87 86 87 85 82 80 79 81 82 79 77 75 74 69 68 69 66 65
165 157 169 170 154 153 154 156 162 152 149 152 144 119 118 116 127 127 120 117 120 134 133 133 133 133 136 132 133 131 121 121 117 114 106 112 123 139 148 159 168 209 143 125 128 133 141 142 146 145 138 130 129 132 131 127 120 111 109 109 113 116 111 103 102 100 96 94 91 90 91 89 83 79 75 79 82 78 76 76 72 69 69 68 64
163 168 180 167 162 160 163 152 154 171 168 158 133 119 121 144 149 145 132 127 128 135 134 133 127 122 126 129 134 130 127 120 103 104 101 97 91 123 133 116 78 37 19 119 134 134 136 141 140 141 141 140 140 141 135 126 118 111 112 113 109 113 114 110 107 107 101 97 96 93 88 87 85 82 82 77 76 75 77 76 72 68 68 69 67
166 174 186 175 176 172 164 161 174 175 174 170 127 109 135 158 149 137 129 128 124 116 115 126 120 124 133 137 136 134 132 127 111 104 101 90 103 98 102 82 90 63 73 67 81 92 91 105 133 145 144 148 149 148 140 128 121 117 117 119 119 117 115 112 110 108 107 104 102 98 93 91 89 88 82 79 77 74 72 74 74 71 69 68 65
177 185 192 185 176 171 168 178 177 176 170 168 121 121 133 134 125 122 114 119 115 110 105 89 117 122 131 141 142 138 135 130 128 123 114 115 105 104 60 56 47 72 77 82 81 82 79 88 135 148 139 152 157 152 148 137 128 122 118 120 126 121 117 121 121 117 113 108 103 101 99 94 92 90 87 84 83 81 78 74 74 72 69 70 68
173 184 184 179 170 179 177 184 178 171 147 131 125 137 136 141 146 132 139 136 132 134 126 121 114 124 135 145 142 144 141 137 136 135 128 106 114 88 80 58 72 62 49 74 81 74 55 48 80 144 149 165 159 157 154 147 138 129 130 131 133 135 131 124 120 120 118 115 107 103 103 101 97 93 92 92 89 86 83 79 76 73 69 67 68
183 179 178 173 175 182 188 188 168 158 144 149 146 142 139 146 146 128 109 102 108 111 124 130 139 142 145 148 150 145 143 145 141 140 130 117 104 93 80 74 80 65 58 44 49 47 50 53 39 37 98 158 141 186 159 158 150 137 130 129 131 130 135 133 127 119 112 110 107 106 107 108 104 102 99 94 92 90 88 83 79 75 71 64 63
182 177 171 127 164 185 160 120 168 151 144 150 149 155 156 147 162 138 123 115 119 102 112 131 137 138 144 148 151 150 148 150 149 142 134 120 105 97 74 85 73 80 73 60 54 52 48 54 54 52 47 111 186 138 187 176 162 151 144 138 134 133 133 132 130 127 122 118 119 115 112 112 115 113 112 107 102 99 98 95 88 84 75 71 66
181 172 105 144 184 178 165 79 69 122 132 148 163 165 160 144 124 137 136 140 135 130 127 135 137 139 141 148 153 154 156 157 150 141 133 126 131 121 112 90 93 73 67 64 56 50 31 32 30 16 20 19 185 173 183 187 168 167 155 150 142 140 140 139 139 138 132 122 119 118 122 125 127 127 123 121 117 109 103 98 90 85 79 73 69
160 98 126 192 180 169 90 91 84 90 135 146 158 157 154 154 152 139 141 137 143 142 139 139 144 142 140 141 148 152 157 73 87 127 139 141 142 139 133 111 100 86 70 65 59 44 37 36 34 22 12 13 16 178 190 184 174 183 161 163 155 147 146 145 145 147 144 133 126 124 120 121 128 133 132 129 130 122 110 101 95 90 82 77 59
138 125 164 179 170 117 155 134 138 128 142 138 140 141 141 147 150 123 95 112 139 141 140 138 138 131 129 132 135 127 91 149 125 142 148 154 150 137 130 124 112 89 81 70 60 63 61 54 42 33 357 18 30 112 160 167 167 195 180 169 182 145 158 153 151 151 150 138 129 125 131 135 130 132 139 133 134 125 115 105 99 102 105 88 63
148 155 162 177 163 150 170 157 172 133 151 150 152 155 157 145 122 114 101 89 98 127 133 128 115 113 113 99 71 81 112 92 102 86 147 148 146 144 149 133 117 103 86 85 82 69 67 58 51 36 20 7 31 56 89 147 183 198 190 194 187 178 175 156 162 154 156 152 144 136 134 139 151 142 138 130 133 128 123 116 105 98 93 73 70
170 164 157 168 166 157 156 144 165 178 214 189 153 129 120 119 117 124 127 119 129 135 137 128 122 91 80 76 72 71 96 97 112 117 91 155 137 153 152 120 114 111 114 120 85 78 63 62 53 44 22 28 17 42 63 85 156 180 196 204 201 193 182 160 172 151 141 133 125 127 142 152 185 192 153 121 135 122 118 109 99 86 81 80 78
169 162 153 133 158 160 150 145 151 191 235 286 140 154 164 150 137 110 48 103 95 158 152 136 139 153 137 116 68 72 68 63 75 100 161 155 157 129 125 130 125 122 124 94 90 80 65 63 60 40 28 25 27 33 29 43 52 113 149 186 202 197 182 182 161 150 141 128 116 99 92 92 95 99 119 142 130 123 118 104 89 89 86 80 74
169 159 136 150 169 162 161 154 159 158 192 174 169 173 163 150 156 148 131 103 147 167 170 182 138 131 117 108 138 110 97 81 52 141 125 110 123 134 128 131 124 124 122 100 94 77 74 64 55 44 27 29 27 24 22 45 67 61 56 92 124 166 168 171 159 146 137 119 113 99 91 87 85 87 97 114 127 126 115 102 98 92 87 82 76
175 164 158 167 164 170 180 154 164 181 187 174 180 188 161 157 159 154 136 138 165 177 189 179 153 139 149 183 155 132 127 157 157 180 137 123 116 131 143 133 126 119 86 102 100 88 75 71 60 41 33 34 32 29 32 32 48 55 58 61 98 113 141 145 138 143 122 114 106 102 95 92 90 93 98 101 107 122 119 109 101 94 91 89 83
170 176 181 177 175 178 169 177 181 177 187 170 184 194 170 152 140 155 168 162 166 158 191 181 190 127 133 129 101 175 207 143 141 72 116 137 143 142 102 88 109 132 117 100 103 96 93 68 61 50 37 37 40 38 41 43 48 51 60 70 77 91 99 112 125 126 117 114 112 107 101 96 93 94 98 106 110 114 112 105 100 97 91 86 83
189 188 189 178 179 182 182 179 178 172 180 171 169 183 152 151 181 187 184 184 152 160 173 205 212 161 94 45 173 168 163 155 154 176 35 68 115 126 129 137 131 128 140 127 117 109 96 85 72 64 47 46 45 52 49 51 55 54 66 82 93 105 114 121 122 116 116 115 114 110 110 108 99 93 97 104 106 107 108 107 102 97 92 86 82
194 193 208 203 184 184 184 184 174 157 138 123 186 185 168 172 175 188 152 106 152 166 176 183 181 240 199 269 346 299 152 145 180 117 152 138 98 133 150 141 154 146 147 141 141 135 119 97 92 85 63 48 60 54 52 52 59 69 83 90 88 92 104 110 115 118 119 121 117 114 111 111 108 103 99 101 103 104 103 102 100 96 91 87 85
185 189 200 211 194 191 186 177 171 169 178 187 193 182 156 157 154 151 157 178 196 176 177 170 176 196 179 220 285 301 188 30 145 163 154 159 149 55 86 135 178 135 116 159 161 156 146 126 126 110 96 71 76 76 69 69 66 65 76 93 88 84 87 94 106 120 123 121 120 117 114 109 108 109 109 109 105 104 105 103 98 94 94 94 93
191 192 200 205 196 189 180 179 178 171 181 186 186 175 173 167 162 167 181 188 194 192 165 183 193 188 148 162 84 104 111 30 100 76 138 140 126 155 139 78 97 356 139 166 171 166 164 164 149 132 123 103 78 89 83 80 79 76 94 100 100 96 90 89 91 100 115 119 119 119 118 115 114 114 112 110 109 109 107 105 104 104 104 103 100
207 204 207 202 195 186 181 184 185 174 179 177 172 174 184 184 178 180 186 190 194 179 182 183 194 175 178 148 143 106 84 50 71 106 61 76 156 169 163 152 153 193 155 171 163 163 148 156 136 131 127 122 93 83 88 95 94 89 104 108 106 101 95 92 94 97 103 116 123 123 123 123 120 119 120 119 116 115 115 116 117 115 113 110 107
208 215 214 200 198 189 183 186 186 183 179 168 175 180 188 186 183 181 186 190 187 183 177 180 179 171 170 173 170 168 169 172 182 181 149 140 123 145 156 164 153 136 166 153 159 151 142 127 143 132 127 114 64 71 103 112 105 117 123 116 112 107 104 105 107 110 116 123 127 127 128 126 126 124 124 124 127 129 128 126 124 124 121 118 115
209 220 210 207 205 199 185 182 186 188 187 173 173 183 176 173 182 189 192 194 184 180 176 175 180 182 188 190 182 180 172 172 181 174 171 163 156 160 155 127 95 54 135 121 107 139 149 152 148 147 135 126 99 62 61 96 126 130 127 124 119 117 118 116 116 120 124 126 127 133 134 133 133 134 132 136 136 136 133 132 132 131 133 130 126
207 213 215 207 204 197 183 176 190 197 177 175 185 175 165 175 185 195 193 190 189 185 184 189 184 188 194 190 180 181 195 188 163 172 141 133 138 142 123 129 128 127 117 150 142 88 155 175 158 151 155 152 137 111 95 120 139 139 135 132 130 127 128 129 129 134 137 138 144 147 142 142 142 142 142 142 145 143 141 131 109 95 90 115 136
221 214 202 203 201 195 193 194 189 177 174 181 182 181 171 176 184 195 197 195 187 188 195 194 191 196 177 177 190 194 200 175 170 153 152 138 151 152 145 72 94 124 92 167 109 174 229 172 158 148 152 163 150 135 125 161 165 160 148 144 141 137 138 140 148 156 156 151 149 151 152 155 153 150 156 154 138 134 129 119 123 118 118 114 116
227 218 182 190 194 186 191 196 190 176 170 174 178 178 178 177 186 191 194 187 188 187 196 189 189 188 188 190 191 196 192 185 170 178 163 169 159 156 147 138 81 66 149 53 53 221 187 201 161 160 168 163 163 166 158 168 198 175 162 146 151 149 148 152 160 167 165 155 146 150 154 151 150 148 137 128 136 138 139 138 137 140 140 146 147
217 177 181 184 192 188 187 196 186 174 177 173 175 181 183 185 183 183 193 187 188 191 195 190 195 192 196 182 172 201 192 182 190 175 179 168 159 161 160 155 149 153 182 194 222 240 170 182 209 202 175 169 167 171 169 155 193 194 173 162 156 160 162 166 175 174 169 163 157 159 155 148 146 149 153 156 156 163 161 157 158 160 164 170 178
211 169 168 185 188 186 189 195 191 188 175 177 182 187 187 190 184 179 190 190 189 197 185 192 198 192 189 179 190 187 192 188 188 177 170 163 169 171 172 167 167 144 164 197 214 223 216 186 185 205 178 164 163 175 170 178 185 193 190 183 169 164 177 179 184 181 176 172 173 174 172 168 168 170 174 177 176 177 180 176 175 179 186 197 220
204 181 162 178 179 191 177 194 203 198 183 180 184 187 184 190 188 188 185 177 192 191 196 191 188 181 190 180 184 180 180 180 190 172 168 171 168 177 182 176 161 161 166 178 211 207 203 186 204 177 179 172 158 166 185 184 193 185 197 189 190 180 189 195 191 188 183 182 181 185 185 186 188 192 194 195 196 195 194 192 197 206 215 242 267
200 183 171 176 179 182 180 190 196 198 185 185 182 176 179 179 179 186 170 169 184 193 196 191 187 179 186 194 181 180 172 183 175 167 168 166 174 174 174 159 187 168 165 168 174 237 188 194 212 207 164 165 162 152 174 186 199 182 190 198 204 197 196 209 206 199 195 193 191 194 199 201 206 206 209 211 212 212 213 218 227 237 249 259 274
205 183 173 176 179 183 185 185 189 185 183 181 176 169 174 185 179 181 170 167 177 190 187 189 182 188 189 195 190 183 164 159 165 170 169 171 166 170 173 174 175 162 154 157 170 194 193 196 179 173 160 145 159 160 172 188 207 203 195 212 208 204 213 217 223 219 210 206 206 208 212 213 217 219 221 225 227 226 225 230 232 237 245 249 255
201 178 175 180 182 184 180 184 184 180 179 174 186 172 182 186 185 181 169 171 181 188 176 187 186 186 190 197 195 190 156 162 166 160 164 160 159 171 168 162 168 156 160 157 157 122 95 359 157 170 151 139 167 181 170 180 189 194 197 222 224 217 219 226 234 235 234 227 224 226 229 233 231 230 230 233 237 236 234 232 231 232 234 233 233
195 180 177 176 173 174 182 185 177 172 175 179 178 178 186 191 187 182 173 173 183 183 182 191 189 188 192 198 198 182 179 157 154 164 167 161 166 155 175 173 180 173 180 143 156 147 179 153 136 58 138 186 166 186 186 180 188 174 205 213 216 226 233 237 242 248 243 244 242 241 241 243 246 244 244 241 241 246 247 245 240 237 236 233 231
186 169 164 164 162 164 174 169 165 177 185 179 174 174 182 188 190 194 185 180 184 184 185 191 191 181 191 200 198 174 132 162 170 162 161 173 168 173 179 180 188 182 183 179 138 159 167 203 179 163 174 174 197 182 194 185 166 176 195 210 210 210 225 224 239 244 245 245 245 246 247 244 242 240 237 237 239 238 241 244 244 243 242 241 239
181 169 156 153 150 155 165 168 175 185 189 180 173 179 180 184 192 194 193 192 188 186 184 184 188 185 197 198 198 169 163 175 169 161 167 161 171 181 187 186 190 184 185 185 189 151 169 166 208 189 174 162 206 145 154 155 167 180 206 207 202 220 221 222 226 239 236 237 240 242 244 244 242 241 238 236 235 235 238 241 242 244 245 245 244
193 168 153 143 144 158 171 179 177 185 192 186 178 181 184 191 191 191 194 196 193 188 187 187 191 194 198 202 188 165 166 173 168 170 172 174 174 173 186 185 192 187 172 188 184 147 148 190 167 154 135 182 146 141 166 165 172 181 189 211 215 219 225 227 230 236 245 238 242 242 243 242 241 239 239 237 236 236 237 238 239 239 241 242 242
190 185 159 148 149 162 177 179 177 181 181 186 189 187 184 185 191 192 189 195 200 199 194 192 199 195 199 199 191 177 175 174 179 175 176 181 172 180 183 180 189 174 185 186 175 170 179 177 157 147 181 170 168 171 183 181 159 180 208 225 235 225 217 235 230 225 223 227 227 238 243 247 244 243 244 243 243 245 246 246 246 246 246 246 245
193 182 166 148 152 162 180 173 175 177 176 180 186 185 184 183 186 186 184 188 193 198 198 196 200 199 200 200 196 188 186 186 174 176 175 182 180 189 188 183 177 167 187 187 170 175 176 148 143 179 151 181 143 179 146 170 155 174 186 188 249 222 213 218 242 209 211 234 237 234 240 242 247 244 241 242 245 246 248 248 248 248 248 248 247
210 197 173 159 153 162 175 179 177 171 166 165 168 178 186 190 186 189 188 188 192 197 200 198 197 198 194 190 192 190 194 185 177 179 177 179 186 191 193 179 173 175 186 169 179 178 168 178 180 170 168 151 138 55 100 140 162 231 209 192 221 223 215 215 232 227 201 214 245 246 241 246 251 249 253 254 250 246 246 249 247 247 247 245 243
224 231 148 133 135 138 130 143 148 154 166 170 169 174 183 191 190 191 189 191 192 193 202 201 198 197 195 190 189 187 197 179 180 184 196 190 181 192 194 177 179 192 181 169 185 171 176 171 177 137 148 164 175 154 151 177 194 206 178 185 227 234 165 239 240 208 213 227 239 242 248 212 242 237 229 242 245 240 243 242 251 250 249 249 247
186 145 134 125 140 148 144 127 126 135 150 142 157 174 189 188 189 189 179 189 191 191 189 188 185 177 169 157 173 173 162 149 138 128 150 231 247 257 192 167 154 141 189 195 189 180 171 177 193 167 162 190 186 191 191 203 140 74 135 164 219 198 146 261 277 222 189 203 223 244 249 193 211 251 226 241 257 231 247 238 235 245 250 246 245
167 157 141 147 144 141 148 156 156 147 124 79 61 211 216 214 192 184 183 184 179 179 185 181 171 157 135 136 143 147 134 112 112 117 119 122 140 182 181 194 191 185 184 190 207 181 179 198 176 171 193 196 203 192 201 154 169 178 169 177 187 152 204 215 265 336 221 192 208 252 278 156 190 242 251 247 255 251 245 253 260 254 252 254 252
98 88 110 124 125 126 128 133 136 122 107 40 17 331 275 237 222 197 184 172 171 174 180 177 162 154 138 129 124 118 139 145 130 111 97 98 106 103 98 88 41 2 178 191 190 185 192 181 172 200 190 202 177 172 183 173 175 170 167 158 168 182 191 212 236 233 248 164 172 213 274 145 196 234 266 258 257 261 252 257 258 255 256 258 259
101 90 64 67 82 97 115 124 104 67 76 22 11 346 287 229 221 210 153 154 161 168 155 141 150 146 143 126 114 109 141 139 123 113 111 96 89 88 84 77 62 61 67 52 314 221 189 176 176 166 189 155 146 190 185 168 138 166 160 173 182 188 191 216 233 263 272 182 147 208 275 280 129 224 259 274 283 268 274 261 262 269 271 268 264
85 81 70 60 44 69 92 107 101 59 48 353 340 60 180 180 168 148 128 125 120 119 125 126 132 143 153 145 136 132 121 118 122 118 108 98 91 70 57 49 54 40 40 39 53 74 103 144 138 134 132 168 135 137 138 142 142 160 159 191 170 183 184 213 224 208 353 92 147 48 294 286 120 266 272 289 304 298 284 297 300 297 291 287 291
59 76 82 75 52 44 51 79 92 60 27 4 67 93 108 133 122 112 108 94 93 86 82 90 101 117 134 137 137 137 134 125 119 127 117 109 96 83 67 54 47 48 40 26 23 36 68 78 83 89 87 66 85 88 97 112 112 105 146 151 166 160 169 161 139 53 73 11 199 188 258 295 360 311 295 303 323 314 310 310 311 304 312 326 320
29 63 68 71 62 48 35 44 69 58 29 25 63 82 96 108 106 108 107 100 100 93 86 81 84 77 103 131 137 130 128 121 119 119 122 120 107 100 93 79 61 50 54 44 47 54 57 60 62 67 67 71 73 77 76 105 106 110 102 94 72 42 95 54 41 353 84 60 33 37 333 302 326 320 313 323 318 311 305 308 293 311 339 309 292
25 22 46 70 69 60 49 46 56 52 39 18 44 68 81 95 108 111 105 101 95 95 84 84 86 89 87 104 112 127 122 121 128 128 131 118 103 103 101 101 96 80 67 56 59 66 71 73 75 74 71 66 61 57 55 57 66 83 81 56 25 1 57 82 336 357 360 24 31 7 3 297 326 338 309 293 297 284 282 272 304 338 302 318 321
28 15 358 39 67 65 63 56 47 61 48 30 44 58 76 82 99 110 115 107 98 91 91 64 64 68 70 83 105 109 117 118 130 125 133 120 109 114 116 113 104 94 84 66 91 81 83 79 75 70 63 61 60 56 50 49 47 44 64 92 143 92 79 65 98 312 320 14 44 328 320 261 320 280 289 268 263 237 241 279 305 329 353 338 339
30 10 7 353 59 68 64 60 55 55 52 40 49 65 70 80 91 97 102 110 105 98 93 82 60 67 60 46 58 76 94 114 119 129 140 127 121 129 129 112 106 101 114 145 109 97 82 75 62 63 53 49 52 56 47 48 49 52 52 76 83 85 100 82 101 347 357 213 64 351 353 290 309 280 344 325 299 298 318 259 349 355 333 328 323